STARLINK-24 1 44238U 19029D 21061.42426187 .00005680 00000-0 31661-3 0 9995 2 44238 52.9960 116.2245 0000824 92.2120 267.8966 15.14997377 98111 STARLINK-26 1 44240U 19029F 21060.82135862 .00220751 00000-0 15656-2 0 9991 2 44240 53.0008 2.4409 0004909 120.6664 239.4837 15.72741941 99733 STARLINK-61 1 44249U 19029Q 21061.36106365 .00003874 00000-0 19022-3 0 9993 2 44249 52.9977 95.3002 0006969 77.8482 282.3292 15.20394058 98494 STARLINK-71 1 44252U 19029T 21061.44961294 .00000526 00000-0 46498-4 0 9995 2 44252 53.0010 119.0658 0000370 139.8286 220.2732 15.12796781 98074 STARLINK-43 1 44257U 19029Y 21061.18733151 .00024582 00000-0 64425-3 0 9997 2 44257 53.0024 27.9565 0001810 47.8505 312.2651 15.38564689 99419 STARLINK-55 1 44268U 19029AK 21060.99603729 .00610711 16926-3 14028-2 0 9999 2 44268 52.9947 335.0637 0003306 130.3614 229.7703 15.96751841100074 STARLINK-64 1 44275U 19029AS 21060.94437411 .00019788 00000-0 44791-3 0 9996 2 44275 52.9934 45.5859 0003077 63.4733 296.6586 15.43148054 99101 STARLINK-68 1 44279U 19029AW 21061.21941976 .00014941 00000-0 15727-3 0 9990 2 44279 52.9997 40.8342 0000788 60.8676 299.2416 15.64556004 99171 STARLINK-70 1 44281U 19029AY 21060.30018092 .00019442 00000-0 40573-3 0 9994 2 44281 52.9995 72.4141 0000960 17.1901 342.9137 15.45571886 29777 STARLINK-80 1 44282U 19029AZ 21060.72250209 .00012376 00000-0 44172-3 0 9997 2 44282 53.0225 60.4877 0003515 329.9345 30.1451 15.29260483 98911 STARLINK-75 1 44286U 19029BD 21060.45416283 .00043762 00000-0 20745-3 0 9990 2 44286 53.0039 329.4852 0005601 43.8991 316.2474 15.82524682101209 STARLINK-76 1 44287U 19029BE 21061.26376344 .00004091 00000-0 88841-4 0 9998 2 44287 52.9971 57.6110 0000475 60.8491 299.2563 15.46771306100056 STARLINK-48 1 44289U 19029BG 21060.43594408 .00001557 00000-0 52616-4 0 9996 2 44289 52.9987 81.9962 0001413 86.3998 273.7165 15.37214525 97761 FALCON 9 DEB 1 44295U 19029BN 21061.45341571 .00003850 00000-0 88453-4 0 9993 2 44295 53.0019 331.0892 0009268 163.8063 196.3241 15.45259146101361 FALCON 9 DEB 1 44296U 19029BP 21060.46697981 .00003436 00000-0 79861-4 0 9996 2 44296 53.0021 335.6109 0008814 175.9077 184.2001 15.45283887101214 FALCON 9 DEB 1 44297U 19029BQ 21061.43087694 .00004509 00000-0 97068-4 0 9990 2 44297 53.0018 325.2298 0005043 150.8211 209.3078 15.46772454101440 FALCON 9 DEB 1 44298U 19029BR 21060.88373159 .00004350 00000-0 93675-4 0 9997 2 44298 53.0017 327.5099 0004051 175.6647 184.4394 15.46864055101364